Regional Weather Roundup
Issued by NWS

Home | Current Version | Previous Version | Graphics & Text | Print | Product List | Glossary On
Versions: 1 2 3 4 5 6 7 8 9 10 11 12 13 14 15 16 17 18 19 20 21 22 23 24 25 26 27 28 29 30 31 32 33 34 35 36 37 38 39 40 41 42 43 44 45 46 47 48 49 50
000
ASUS43 KLOT 022208
RWRIL

ILLINOIS REGIONAL WEATHER ROUNDUP
NATIONAL WEATHER SERVICE CHICAGO/ROMEOVILLE IL
500 PM CDT TUE JUN 02 2015

NOTE: "FAIR" INDICATES FEW OR NO CLOUDS BELOW 12,000 FEET WITH NO
SIGNIFICANT WEATHER AND/OR OBSTRUCTIONS TO VISIBILITY.

* THESE STATIONS ARE NOT UNDER NWS QUALITY CONTROL. THEY ALSO MAY NOT
  REPORT WEATHER SUCH AS PRECIPITATION OR FOG.

ILZ001-002-007-009-015-016-024-022300-
NORTHWEST ILLINOIS

CITY           SKY/WX    TMP DP  RH WIND       PRES   REMARKS
MOLINE         SUNNY     74  50  42 SE8       30.04F
STERLING*      SUNNY     73  46  38 CALM      30.07S
SAVANNA*       SUNNY     74  46  36 NW3       30.06S
$$

ILZ003-004-008-010-011-017-018-022300-
NORTH CENTRAL ILLINOIS

CITY           SKY/WX    TMP DP  RH WIND       PRES   REMARKS
ROCKFORD       PTSUNNY   74  46  36 S9        30.08F
FREEPORT*      SUNNY     71  46  40 S8        30.09F
ROCHELLE*      FAIR      73  44  35 CALM      30.08S
DE KALB*       SUNNY     70  46  42 SE9       30.09S
PERU*          SUNNY     73  42  32 SE7       30.08S
$$

ILZ005-006-012>014-019>023-022300-
NORTHEAST ILLINOIS

CITY           SKY/WX    TMP DP  RH WIND       PRES   REMARKS
CHICAGO-OHARE  MOSUNNY   69  45  41 E5        30.09S
CHICAGO-MIDWAY MOSUNNY   70  48  45 E10       30.09F
AURORA         SUNNY     74  45  35 E8        30.08S
LANSING*       SUNNY     67  46  46 NE9       30.09F
JOLIET*        SUNNY     74  47  39 SE6       30.09R
WAUKEGAN       SUNNY     64  45  49 E7        30.11S
DUPAGE AIRPORT SUNNY     72  44  36 MISG      30.08S
KANKAKEE*      SUNNY     71  51  48 E12       30.09S
WHEELING       SUNNY     67  44  43 CALM      30.11F
MORRIS*        SUNNY     74  44  34 E8        30.07S
ROMEOVILLE*    SUNNY     72  41  32 S7        30.09R
NORTHERLY ISL    N/A     59  50  72 NE3         N/A
$$

LMZ740>746-022300-
SOUTHERN LAKE MICHIGAN

STATION/POSITION SKY/WX   TEMP    WIND        PRES    VSBY  WAVE
                          AIR SEA DIR/SP/G                  HT/PER
                          (F)     (DEG/KT/KT) (MB)    (MI)  (FT/S)
SOUTHERN BUOY              46 39  340/  6/  8 1020.7F
HARRISON CRIB              55      40/  7/  8   N/A
BURNHAM HARBOR             59      20/  7/  7   N/A
CALUMET HARBOR             61      20/  6/ 10   N/A
BURNS HARBOR                       30/  8/  8 1020.3F
MICHIGAN CITY              54      10/  8/  9   N/A
MICHIGAN CITY 6N           54 56   50/  8/ 10   N/A           1
ST. JOSEPH                 56 56   60/ 10/ 12   N/A           1
$$

ILZ025>027-034>036-040-047-049-050-058-095>099-022300-
WEST-CENTRAL ILLINOIS

CITY           SKY/WX    TMP DP  RH WIND       PRES   REMARKS
QUINCY         PTSUNNY   71  53  52 E6        30.05F
GALESBURG*     SUNNY     72  52  49 CALM      30.06S
MACOMB*        MOSUNNY   72  53  50 SE6       30.08S
JACKSONVILLE*  SUNNY     74  55  51 E9        30.05F
PITTSFIELD*    MOSUNNY   73  55  54 CALM      30.06S
$$

ILZ028>032-037-038-041>044-048-051>054-059>061-022300-
CENTRAL ILLINOIS

CITY           SKY/WX    TMP DP  RH WIND       PRES   REMARKS
PONTIAC        SUNNY     73  49  41 E7        30.09S
BLOOMINGTON    SUNNY     73  52  47 SE6       30.08F
DECATUR        SUNNY     73  53  49 VRB3      30.05F
PEORIA         SUNNY     73  50  44 S6        30.07S
LACON*         SUNNY     73  48  41 SE6       30.06S
LINCOLN*       SUNNY     74  52  45 SE5       30.03F
SPRINGFIELD    SUNNY     74  55  51 E3        30.06S
TAYLORVILLE    MOSUNNY   72  55  56 E5        30.05F
$$

ILZ033-039-045-046-055>057-062-063-022300-
EAST-CENTRAL ILLINOIS

CITY           SKY/WX    TMP DP  RH WIND       PRES   REMARKS
CHAMPAIGN      MOSUNNY   73  54  51 E6        30.06F
DANVILLE*      SUNNY     71  52  51 E9        30.05S
RANTOUL*       SUNNY     74  53  47 SE5       30.07S
MATTOON        SUNNY     72  56  57 SE7       30.05S
PARIS*         SUNNY     73  55  52 NE8       30.06F
$$

ILZ079-100>102-022300-
SOUTHWEST ILLINOIS

CITY           SKY/WX    TMP DP  RH WIND       PRES   REMARKS
ALTON          MOSUNNY   72  63  73 E6        30.05
BELLEVILLE     MOSUNNY   69  59  69 SE5       30.05F
CAHOKIA*       SUNNY     73  57  57 VRB6      30.04F
SPARTA*        CLOUDY    65  57  74 E3        30.07F
$$

ILZ064>066-069>071-074>076-080>082-084>086-088>090-092>094-022300-
SOUTH-CENTRAL ILLINOIS

CITY           SKY/WX    TMP DP  RH WIND       PRES   REMARKS
CARBONDALE     CLOUDY    64  56  75 NE3       30.07S
CAIRO*         CLOUDY    65  58  77 CALM      30.06S
EFFINGHAM*     MOSUNNY   71  55  55 NE3       30.07S
MT. VERNON     CLOUDY    64  54  68 CALM      30.08S
CENTRALIA*     CLOUDY    71  54  53 CALM      30.07S
SALEM*         MOSUNNY   68  56  65 CALM      30.07F
METROPOLIS*    CLOUDY    65  59  82 N3        30.18R
$$

ILZ067-068-072-073-078-083-087-091-022300-
SOUTHEAST ILLINOIS

CITY           SKY/WX    TMP DP  RH WIND       PRES   REMARKS
LAWRENCEVILLE  SUNNY     71  56  58 CALM      30.06S
FLORA*         SUNNY     67  56  68 CALM      30.07F
FAIRFIELD*     CLOUDY    64  56  73 CALM      30.06F
HARRISBURG*    CLOUDY    65  56  73 E3        30.07F
ROBINSON*      PTSUNNY   73  55  52 CALM      30.06S
CARMI*         CLOUDY    64  52  63 CALM      30.07S
$$

ABBREVIATIONS USED IN REMARKS
   TC - TEMPERATURE IN CELSIUS
  WCI - WIND CHILL INDEX
   HX - HEAT INDEX
  VSB - VISIBILITY
$$




USA.gov is the U.S. government's official web portal to all federal, state and local government web resources and services.